Location: Gleizolles
(44.4833°N, 6.7667°E)
Time: 15:09:00
(UTC+00:00)

deb Explorer IX - Pass Details

Date: 03 July 2024
Orbit: 510 x 878 km, 38.7° (Epoch: 21 July)

Event Time Altitude Azimuth Distance (km) Brightness Sun altitude
Exits shadow 04:04:22 -1° 240° (WSW) 2,682 ? 0.8°
Rises 04:04:32 0° 239° (WSW) 2,617 ? 0.8°
Reaches altitude 10° 04:06:56 10° 228° (SW) 1,720 ? 1.2°
Maximum altitude 04:10:19 29° 167° (SSE) 955 ? 1.7°
Drops below altitude 10° 04:13:46 10° 107° (ESE) 1,748 ? 2.2°
Sets 04:16:14 0° 96° (E) 2,669 ? 2.6°
